Weather History for Pensacola NAS, FL

Change the Weather History Date:

Friday, January 11, 2013

  Actual Average Record
Temperature  
Mean Temperature 68 °F -  
Max Temperature 73 °F 59 °F - (-1)
Min Temperature 62 °F 40 °F - (-1)
Cooling Degree Days 2    
Growing Degree Days 18 (Base 50)    
Moisture  
Dew Point 67 °F    
Average Humidity 93    
Maximum Humidity 100    
Minimum Humidity 78    
Precipitation  
Precipitation 0.00 in - - ()
Sea Level Pressure  
Sea Level Pressure 30.12 in    
Wind  
Wind Speed 7 mph (SE)    
Max Wind Speed 12 mph    
Max Gust Speed -    
Visibility 9 miles    
Events Fog    
Averages and records for this station are not official NWS values.
T = Trace of Precipitation, MM = Missing Value Source: NWS Daily Summary

Daily Weather History Graph

Daily Weather History Graph

Search for Another Location

Airport:

Trip Planner

Search our weather history database for the weather conditions in past years. The results will help you decide how hot, cold, wet, or windy it might be!

Date:

Astronomy

Jan. 11, 2013 Rise Set
Actual Time 6:47 AM CST 5:07 PM CST
Civil Twilight 6:20 AM CST 5:34 PM CST
Nautical Twilight 5:51 AM CST 6:03 PM CST
Astronomical Twilight 5:22 AM CST 6:32 PM CST
Moon 6:22 AM CST (1/11) 5:21 PM CST (1/11)
Length of Visible Light 11h 13m
Length of Day
10h 20m
Waning Crescent, 0% of the Moon is Illuminated
Jan 11
Waning Crescent
Jan 11
New
Jan 18
First Quarter
Jan 26
Full
Feb 3
Last Quarter

Hourly Weather History & Observations

Time (CST) Temp. Dew Point Humidity Pressure Visibility Wind Dir Wind Speed Gust Speed Precip Events Conditions
12:56 AM 64.9 °F 64.9 °F 100% 30.11 in 10.0 mi SE 8.1 mph - 0.00 in   Clear
1:56 AM 64.9 °F 64.9 °F 100% 30.12 in 10.0 mi SSW 8.1 mph - N/A   Clear
2:56 AM 66.0 °F 64.9 °F 96% 30.11 in 10.0 mi SSW 6.9 mph - N/A   Mostly Cloudy
3:56 AM 64.9 °F 64.0 °F 97% 30.09 in 10.0 mi Calm Calm - N/A   Overcast
4:56 AM 64.9 °F 64.0 °F 97% 30.09 in 10.0 mi Calm Calm - 0.00 in   Overcast
5:56 AM 63.0 °F 63.0 °F 100% 30.12 in 10.0 mi Calm Calm - N/A   Overcast
6:56 AM 62.1 °F 62.1 °F 100% 30.14 in 7.0 mi Calm Calm - N/A Fog Shallow Fog
7:56 AM 64.0 °F 64.0 °F 100% 30.17 in 10.0 mi Calm Calm - N/A   Mostly Cloudy
8:56 AM 71.1 °F 66.9 °F 87% 30.17 in 10.0 mi SE 5.8 mph - N/A   Mostly Cloudy
9:56 AM 73.0 °F 66.9 °F 81% 30.17 in 10.0 mi SE 5.8 mph - N/A   Mostly Cloudy
10:56 AM 73.9 °F 68.0 °F 82% 30.16 in 10.0 mi ESE 9.2 mph - N/A   Mostly Cloudy
11:27 AM 73.4 °F 66.2 °F 78% 30.14 in 10.0 mi ESE 10.4 mph - N/A   Mostly Cloudy
11:48 AM 73.4 °F 66.2 °F 78% 30.14 in 10.0 mi SE 8.1 mph - N/A   Mostly Cloudy
11:56 AM 73.0 °F 66.9 °F 81% 30.14 in 10.0 mi ESE 9.2 mph - N/A   Mostly Cloudy
12:56 PM 73.9 °F 68.0 °F 82% 30.11 in 10.0 mi SE 10.4 mph - N/A   Mostly Cloudy
1:05 PM 73.4 °F 69.8 °F 88% 30.10 in 10.0 mi SE 10.4 mph - N/A   Mostly Cloudy
1:37 PM 73.4 °F 69.8 °F 88% 30.10 in 10.0 mi SE 11.5 mph - N/A   Overcast
1:56 PM 73.9 °F 69.1 °F 85% 30.10 in 10.0 mi SE 10.4 mph - N/A   Mostly Cloudy
2:35 PM 71.6 °F 69.8 °F 94% 30.09 in 9.0 mi SE 9.2 mph - N/A   Overcast
2:56 PM 72.0 °F 69.1 °F 91% 30.10 in 9.0 mi SE 9.2 mph - N/A   Overcast
3:56 PM 70.0 °F 68.0 °F 93% 30.10 in 9.0 mi ESE 9.2 mph - N/A   Mostly Cloudy
4:06 PM 69.8 °F 68.0 °F 94% 30.09 in 9.0 mi ESE 9.2 mph - N/A   Mostly Cloudy
4:56 PM 68.0 °F 66.9 °F 96% 30.10 in 7.0 mi ESE 9.2 mph - N/A   Mostly Cloudy
5:56 PM 68.0 °F 68.0 °F 100% 30.12 in 6.0 mi ESE 9.2 mph - N/A   Overcast
6:56 PM 68.0 °F 68.0 °F 100% 30.12 in 7.0 mi SE 8.1 mph - N/A   Overcast
7:56 PM 68.0 °F 68.0 °F 100% 30.13 in 8.0 mi SE 11.5 mph - N/A   Overcast
8:56 PM 68.0 °F 68.0 °F 100% 30.13 in 8.0 mi SE 9.2 mph - N/A   Overcast
9:56 PM 68.0 °F 68.0 °F 100% 30.14 in 6.0 mi SE 8.1 mph - N/A   Overcast
10:56 PM 68.0 °F 68.0 °F 100% 30.12 in 7.0 mi SE 9.2 mph - N/A   Overcast
11:16 PM 68.0 °F 68.0 °F 100% 30.12 in 5.0 mi SE 6.9 mph - N/A   Overcast
11:56 PM 66.9 °F 66.9 °F 100% 30.12 in 3.0 mi ESE 6.9 mph - N/A   Overcast